星链-5461 (STARLINK-5461 )

导读 | 星芒AI

STARLINK-5461 是 SpaceX Starlink 项目中的一颗低轨通信卫星,属于第二代 Starlink 卫星星座的一部分。该卫星于 2023 年发射,旨在为全球用户提供高速互联网服务。它运行在约 550 公里的轨道高度,具备先进的通信技术和激光链路,以提升网络效率和覆盖范围。作为 Starlink 计划的重要组成,STARLINK-5461 有助于扩大偏远地区的网络接入,并支持 SpaceX 的长期目标,即通过卫星互联网改善全球通信基础设施。

基本信息
目录编号:
55672
目录名称:
STARLINK-5461
国际标识:
2023-021AW
轨道中心:
EARTH
卫星名称:
星链-5461
卫星全名:
星链-5461 (STARLINK-5461 )
卫星状态:
已陨落 最后检测时间 2024-08-21
发射日期:
2023-02-17 UTC
国别 :
美国 (US)
星等 :
--
轨道信息
数据来源 国际轨道数据
星历时间: 2024-08-21T23:54:08+0800
轨道信息已过期445天
半长轴: 6545.89km
偏心率: 0.0005704
轨道倾角: 69.988°
近地点辐角 335.856°
升交点赤经 135.832°
平近点角 142.516°
近地点: 164.021km
远地点: 171.489km
周期: 87.844分钟
每日圈数: 16.392673
详细信息
固有亮度:
5
最大亮度:
2.5
卫星平台:
Starlink v1.5
覆盖范围:
全球
运营商:
太空探索技术公司
运营商所在国:
美国
制造商(研发单位):
太空探索技术公司
制造商所在国:
美国
使用方式:
暂无
卫星简介
星链(Starlink)计划是由太空探索技术公司(SpaceX)提出的一个巨型低轨卫星互联网星座项目,计划在2019年至2024年间在太空搭建由约1.2万颗卫星组成的“星链”网络,其中1584颗将部署在地球上空550千米处的近地轨道,并从2020年开始工作。该卫星仍在工作。